Stations météo

réclame
Mon MeteoGroup
Falsterbo, Suède (2616): Température de l'air & dewpoint: 14.09.2020 20:00:00 - 20.09.2020 20:00:00 (CEST)Falsterbo, Suède (2616): Vitesse du vent: 14.09.2020 20:00:00 - 20.09.2020 20:00:00 (CEST)Falsterbo, Suède (2616): Direction du vent: 14.09.2020 20:00:00 - 20.09.2020 20:00:00 (CEST)Falsterbo, Suède (2616): reduced air pressure: 14.09.2020 20:00:00 - 20.09.2020 20:00:00 (CEST)Falsterbo, Suède (2616): visibility: 14.09.2020 20:00:00 - 20.09.2020 20:00:00 (CEST)
Date & Time tt [°C] td [°C] ff [km/h] ff [knt] dd ppp [hPa] vv [km]
20.09.2020 20:00:00 13,0 10,5 4 2 SE 1021,5 35
20.09.2020 19:00:00 - - - - - - -
20.09.2020 18:00:00 - - - - - - -
20.09.2020 17:00:00 18,2 12,7 7 4 SW 1021,5 28
20.09.2020 16:00:00 - - - - - - -
20.09.2020 15:00:00 - - - - - - -
20.09.2020 14:00:00 18,3 13,4 7 4 ESE 1022,4 16
20.09.2020 13:00:00 - - - - - - -
20.09.2020 12:00:00 - - - - - - -
20.09.2020 11:00:00 15,0 13,7 7 4 NE 1023,3 9
20.09.2020 10:00:00 - - - - - - -
20.09.2020 09:00:00 - - - - - - -
20.09.2020 08:00:00 13,7 13,1 7 4 NE 1022,8 8
20.09.2020 07:00:00 - - - - - - -
20.09.2020 06:00:00 - - - - - - -
20.09.2020 05:00:00 - - - - - - -
20.09.2020 04:00:00 - - - - - - -
20.09.2020 03:00:00 - - - - - - -
20.09.2020 02:00:00 - - - - - - -
20.09.2020 01:00:00 - - - - - - -
20.09.2020 00:00:00 - - - - - - -
19.09.2020 23:00:00 - - - - - - -
19.09.2020 22:00:00 - - - - - - -
19.09.2020 21:00:00 - - - - - - -
19.09.2020 20:00:00 13,4 11,5 4 2 SW 1023,3 25
19.09.2020 19:00:00 - - - - - - -
19.09.2020 18:00:00 - - - - - - -
19.09.2020 17:00:00 16,0 12,9 14 8 N 1023,8 20
19.09.2020 16:00:00 - - - - - - -
19.09.2020 15:00:00 - - - - - - -
19.09.2020 14:00:00 17,6 12,3 7 4 WNW 1025,0 40
19.09.2020 13:00:00 - - - - - - -
19.09.2020 12:00:00 - - - - - - -
19.09.2020 11:00:00 15,1 12,1 11 6 WNW 1025,9 40
19.09.2020 10:00:00 - - - - - - -
19.09.2020 09:00:00 - - - - - - -
19.09.2020 08:00:00 13,8 11,1 14 8 WNW 1025,5 27
19.09.2020 07:00:00 - - - - - - -
19.09.2020 06:00:00 - - - - - - -
19.09.2020 05:00:00 - - - - - - -
19.09.2020 04:00:00 - - - - - - -
19.09.2020 03:00:00 - - - - - - -
19.09.2020 02:00:00 - - - - - - -
19.09.2020 01:00:00 - - - - - - -
19.09.2020 00:00:00 - - - - - - -
18.09.2020 23:00:00 - - - - - - -
18.09.2020 22:00:00 - - - - - - -
18.09.2020 21:00:00 - - - - - - -
18.09.2020 20:00:00 15,7 5,3 25 14 NW 1027,8 60
18.09.2020 19:00:00 - - - - - - -
18.09.2020 18:00:00 - - - - - - -
18.09.2020 17:00:00 17,3 7,4 18 10 WNW 1028,4 50
18.09.2020 16:00:00 - - - - - - -
18.09.2020 15:00:00 - - - - - - -
18.09.2020 14:00:00 17,1 6,3 22 12 WNW 1030,0 60
18.09.2020 13:00:00 - - - - - - -
18.09.2020 12:00:00 - - - - - - -
18.09.2020 11:00:00 14,3 8,7 14 8 WNW 1031,1 55
18.09.2020 10:00:00 - - - - - - -
18.09.2020 09:00:00 - - - - - - -
18.09.2020 08:00:00 12,6 10,5 18 10 WNW 1030,5 70
18.09.2020 07:00:00 - - - - - - -
18.09.2020 06:00:00 - - - - - - -
18.09.2020 05:00:00 - - - - - - -
18.09.2020 04:00:00 - - - - - - -
18.09.2020 03:00:00 - - - - - - -
18.09.2020 02:00:00 - - - - - - -
18.09.2020 01:00:00 - - - - - - -
18.09.2020 00:00:00 - - - - - - -
17.09.2020 23:00:00 - - - - - - -
17.09.2020 22:00:00 - - - - - - -
17.09.2020 21:00:00 - - - - - - -
17.09.2020 20:00:00 13,2 6,1 25 14 N 1030,8 55
17.09.2020 19:00:00 - - - - - - -
17.09.2020 18:00:00 - - - - - - -
17.09.2020 17:00:00 15,2 7,7 25 14 N 1030,6 50
17.09.2020 16:00:00 - - - - - - -
17.09.2020 15:00:00 - - - - - - -
17.09.2020 14:00:00 15,5 7,0 25 14 N 1031,2 60
17.09.2020 13:00:00 - - - - - - -
17.09.2020 12:00:00 - - - - - - -
17.09.2020 11:00:00 12,7 5,6 22 12 N 1031,1 65
17.09.2020 10:00:00 - - - - - - -
17.09.2020 09:00:00 - - - - - - -
17.09.2020 08:00:00 10,0 4,6 22 12 NNE 1029,2 60
17.09.2020 07:00:00 - - - - - - -
17.09.2020 06:00:00 - - - - - - -
17.09.2020 05:00:00 - - - - - - -
17.09.2020 04:00:00 - - - - - - -
17.09.2020 03:00:00 - - - - - - -
17.09.2020 02:00:00 - - - - - - -
17.09.2020 01:00:00 - - - - - - -
17.09.2020 00:00:00 - - - - - - -
16.09.2020 23:00:00 - - - - - - -
16.09.2020 22:00:00 - - - - - - -
16.09.2020 21:00:00 - - - - - - -
16.09.2020 20:00:00 15,8 12,5 43 23 NW 1018,3 25
16.09.2020 19:00:00 - - - - - - -
16.09.2020 18:00:00 - - - - - - -
16.09.2020 17:00:00 18,0 14,7 32 18 NW 1016,6 30
16.09.2020 16:00:00 - - - - - - -
16.09.2020 15:00:00 - - - - - - -
16.09.2020 14:00:00 18,8 16,0 11 6 NNW 1016,7 22
16.09.2020 13:00:00 - - - - - - -
16.09.2020 12:00:00 - - - - - - -
16.09.2020 11:00:00 17,9 16,6 14 8 NW 1016,5 2,8
16.09.2020 10:00:00 - - - - - - -
16.09.2020 09:00:00 - - - - - - -
16.09.2020 08:00:00 16,8 16,2 14 8 NW 1016,2 2,3
16.09.2020 07:00:00 - - - - - - -
16.09.2020 06:00:00 - - - - - - -
16.09.2020 05:00:00 - - - - - - -
16.09.2020 04:00:00 - - - - - - -
16.09.2020 03:00:00 - - - - - - -
16.09.2020 02:00:00 - - - - - - -
16.09.2020 01:00:00 - - - - - - -
16.09.2020 00:00:00 - - - - - - -
15.09.2020 23:00:00 - - - - - - -
15.09.2020 22:00:00 - - - - - - -
15.09.2020 21:00:00 - - - - - - -
15.09.2020 20:00:00 17,7 16,0 14 8 E 1018,5 6
15.09.2020 19:00:00 - - - - - - -
15.09.2020 18:00:00 - - - - - - -
15.09.2020 17:00:00 19,9 16,9 18 10 ESE 1019,6 7
15.09.2020 16:00:00 - - - - - - -
15.09.2020 15:00:00 - - - - - - -
15.09.2020 14:00:00 21,0 17,6 18 10 ESE 1021,5 9
15.09.2020 13:00:00 - - - - - - -
15.09.2020 12:00:00 - - - - - - -
15.09.2020 11:00:00 18,5 16,8 18 10 ESE 1022,8 9
15.09.2020 10:00:00 - - - - - - -
15.09.2020 09:00:00 - - - - - - -
15.09.2020 08:00:00 15,2 14,6 11 6 E 1023,2 6
15.09.2020 07:00:00 - - - - - - -
15.09.2020 06:00:00 - - - - - - -
15.09.2020 05:00:00 - - - - - - -
15.09.2020 04:00:00 - - - - - - -
15.09.2020 03:00:00 - - - - - - -
15.09.2020 02:00:00 - - - - - - -
15.09.2020 01:00:00 - - - - - - -
15.09.2020 00:00:00 - - - - - - -
14.09.2020 23:00:00 - - - - - - -
14.09.2020 22:00:00 - - - - - - -
14.09.2020 21:00:00 - - - - - - -
14.09.2020 20:00:00 16,8 14,6 7 4 S 1025,0 40

tt = Température de l'air
td = dewpoint
ff = Vitesse du vent
dd = Direction du vent
ppp = reduced air pressure
vv = visibility

stations d'obs. à proximité